Location: Newark
(63.1158°N, 8.1461°E)
Time: 20:28:14
(UTC+00:00)

Envisat - Pass Details

Date: 14 December 2019
Orbit: 764 x 766 km, 98.1° (Epoch: 18 January)

Event Time Altitude Azimuth Distance (km) Brightness Sun altitude
Rises 07:04:59 0° 18° (NNE) 3,251 6.1 -9.8°
Reaches altitude 10° 07:07:18 10° 18° (NNE) 2,320 5.3 -9.6°
Maximum altitude 07:12:25 80° 292° (WNW) 786 3.0 -9.1°
Drops below altitude 10° 07:17:30 10° 206° (SSW) 2,305 5.6 -8.6°
Sets 07:19:48 0° 206° (SSW) 3,227 6.4 -8.4°
